Left ArrowRight Arrow

44.8408, -93.29828

Hourly Observations for June 16, 2024

Temp ( °F °C ) Dew Point ( °F °C ) Humidity (%) Winds ( mph kmh ) Pressure ( in mb ) Visibility ( mi km ) Precip ( " mm )
12:18 am 00:18 Cloudy with Nearby Thunderstorms 64 17.8 62 16.7 93 93 SE 10 17 29.74 1007 5 8 0.07 1.78
12:23 am 00:23 Cloudy with Thunderstorms 64 17.8 62 16.7 93 93 SE 14 22 29.74 1007 6 10 0.09 2.29
12:42 am 00:42 Cloudy with Rain 64 17.8 62 16.7 93 93 SE 13 20 29.73 1007 4 6 0.14 3.56
12:53 am 00:53 Cloudy with Rain 64 17.8 62 16.7 93 93 SSE 13 20 29.74 1007 3 5 0.19 4.83
1:00 am 01:00 Cloudy with Nearby Thunderstorms 64 17.8 62 16.7 93 93 SSE 14 22 29.74 1007 3 5 0.04 1.02
1:09 am 01:09 Cloudy with Nearby Thunderstorms 64 17.8 62 16.7 93 93 SSE 20 31 29.73 1007 2 3 0.18 4.57
1:22 am 01:22 Cloudy with Nearby Thunderstorms 64 17.8 62 16.7 93 93 SE 18 30 29.72 1006 4 6 0.34 8.64
1:33 am 01:33 Cloudy with Thunderstorms 64 17.8 62 16.7 93 93 SE 18 30 29.70 1006 4 6 0.39 9.91
1:40 am 01:40 Cloudy with Thunderstorms 64 17.8 62 16.7 93 93 SE 18 30 29.70 1006 4 6 0.41 10.41
1:53 am 01:53 Cloudy with Nearby Thunderstorms 64 17.8 62 16.7 93 93 SSE 16 26 29.71 1006 5 8 0.46 11.68
2:11 am 02:11 Cloudy with Thunderstorms 65 18.3 63 17.2 93 93 S 8 13 29.72 1007 6 10 0.04 1.02
2:32 am 02:32 Cloudy with Light Rain 66 18.9 63 17.2 90 90 SSE 12 19 29.68 1005 10 16 0.07 1.78
2:53 am 02:53 Cloudy with Rain 65 18.3 63 17.2 93 93 SE 10 17 29.69 1005 4 6 0.16 4.06
3:53 am 03:53 Mostly Cloudy 64 17.8 62 16.7 93 93 SSE 12 19 29.66 1005 10 16 0.04 1.02
4:53 am 04:53 Cloudy 65 18.3 63 17.2 93 93 SSE 8 13 29.66 1004 10 16 0.00 0.00
5:03 am 05:03 Cloudy 65 18.3 63 17.2 93 93 SSE 8 13 29.64 1004 10 16 0.00 0.00
5:53 am 05:53 Cloudy 66 18.9 64 17.8 93 93 SE 6 9 29.66 1004 10 16 0.00 0.00
6:53 am 06:53 Cloudy 67 19.4 65 18.3 93 93 SE 7 11 29.65 1004 10 16 0.00 0.00
7:53 am 07:53 Cloudy 70 21.1 66 18.9 87 87 S 10 17 29.64 1004 10 16 0.00 0.00
8:53 am 08:53 Cloudy 73 22.8 66 18.9 79 79 S 12 19 29.65 1004 10 16 0.00 0.00
9:53 am 09:53 Cloudy 76 24.4 67 19.4 74 74 S 14 22 29.63 1004 10 16 0.00 0.00
10:53 am 10:53 Mostly Cloudy 79 26.1 68 20 69 69 S 13 20 29.62 1003 10 16 0.00 0.00
11:53 am 11:53 Mostly Cloudy 82 27.8 69 20.6 65 65 S 15 24 29.60 1003 10 16 0.00 0.00
12:00 pm 12:00 Mostly Cloudy 82 27.8 69 20.6 65 65 SSW 16 26 29.57 1002 10 16 0.00 0.00
12:53 pm 12:53 Cloudy 84 28.9 69 20.6 61 61 SSW 15 24 29.60 1002 10 16 0.00 0.00
1:53 pm 13:53 Mostly Cloudy 86 30 69 20.6 57 57 SSW 17 28 29.59 1002 10 16 0.00 0.00
2:53 pm 14:53 Mostly Cloudy 87 30.6 69 20.6 55 55 SW 15 24 29.59 1002 10 16 0.00 0.00
3:53 pm 15:53 Mostly Cloudy 87 30.6 70 21.1 57 57 SW 15 24 29.59 1002 10 16 0.00 0.00
4:53 pm 16:53 Mostly Cloudy 88 31.1 70 21.1 55 55 WSW 15 24 29.58 1002 10 16 0.00 0.00
5:53 pm 17:53 Mostly Cloudy 88 31.1 71 21.7 57 57 WSW 14 22 29.60 1002 10 16 0.00 0.00
6:53 pm 18:53 Mostly Cloudy 87 30.6 70 21.1 57 57 W 9 15 29.62 1003 10 16 0.00 0.00
7:53 pm 19:53 Partly Cloudy 84 28.9 70 21.1 63 63 WNW 8 13 29.64 1004 10 16 0.00 0.00
8:27 pm 20:27 Partly Cloudy 85 29.4 69 20.6 59 59 WSW 5 7 29.61 1003 10 16 0.00 0.00
8:53 pm 20:53 Partly Cloudy 84 28.9 69 20.6 61 61 WSW 6 9 29.65 1004 10 16 0.00 0.00
9:53 pm 21:53 Partly Cloudy 82 27.8 69 20.6 65 65 W 8 13 29.69 1005 10 16 0.00 0.00
10:53 pm 22:53 Partly Cloudy 80 26.7 69 20.6 69 69 W 7 11 29.70 1006 10 16 0.00 0.00
11:53 pm 23:53 Partly Cloudy 77 25 68 20 74 74 NW 9 15 29.73 1007 10 16 0.00 0.00

Powered by Vaisala Xweather